Time,TemperatureF,DewpointF,PressureIn,WindDirection,WindDirectionDegrees,WindSpeedMPH,WindSpeedGustMPH,Humidity,HourlyPrecipIn,Conditions,Clouds,dailyrainin,SoftwareType,DateUTC
2013-06-19 00:05:00,65.1,50.5,29.23,ESE,115,2.7,27.1,59,3.23,,,0.12,VWS V13.01,2013-06-19 04:05:00,
2013-06-19 00:10:00,65.1,50.9,29.23,ESE,115,0.0,27.1,60,3.23,,,0.12,VWS V13.01,2013-06-19 04:10:00,
2013-06-19 00:15:00,65.1,50.9,29.21,ESE,115,0.0,27.1,60,3.23,,,0.12,VWS V13.01,2013-06-19 04:15:00,
2013-06-19 00:20:00,65.1,50.9,29.21,ESE,115,0.0,27.1,60,3.23,,,0.12,VWS V13.01,2013-06-19 04:20:00,
2013-06-19 00:25:00,65.1,50.9,29.21,ESE,115,0.0,27.1,60,3.23,,,0.12,VWS V13.01,2013-06-19 04:25:00,
2013-06-19 00:30:00,65.1,50.9,29.21,ESE,115,2.2,27.1,60,3.23,,,0.12,VWS V13.01,2013-06-19 04:30:00,
2013-06-19 00:35:00,65.1,50.9,29.21,SSE,155,3.1,27.1,60,3.23,,,0.12,VWS V13.01,2013-06-19 04:35:00,
2013-06-19 00:40:00,65.1,51.3,29.21,North,0,4.0,27.1,61,3.23,,,0.12,VWS V13.01,2013-06-19 04:40:00,
2013-06-19 00:45:00,65.1,51.3,29.21,North,1,0.0,27.1,61,3.23,,,0.12,VWS V13.01,2013-06-19 04:45:00,
2013-06-19 00:50:00,65.1,51.8,29.21,North,1,2.2,27.1,62,3.23,,,0.12,VWS V13.01,2013-06-19 04:50:00,
2013-06-19 00:55:00,65.1,51.8,29.21,North,1,0.0,27.1,62,3.23,,,0.12,VWS V13.01,2013-06-19 04:55:00,
2013-06-19 01:00:00,65.1,51.8,29.21,North,1,0.0,27.1,62,3.23,,,0.12,VWS V13.01,2013-06-19 05:00:00,
2013-06-19 01:05:00,65.1,51.3,29.21,North,1,0.0,27.1,61,3.23,,,0.12,VWS V13.01,2013-06-19 05:05:00,
2013-06-19 01:10:00,65.1,51.8,29.21,North,350,2.2,27.1,62,3.23,,,0.12,VWS V13.01,2013-06-19 05:10:00,
2013-06-19 01:15:00,64.9,51.6,29.21,East,87,0.0,27.1,62,3.23,,,0.12,VWS V13.01,2013-06-19 05:15:00,
2013-06-19 01:20:00,64.8,51.5,29.21,SE,135,0.0,27.1,62,3.23,,,0.12,VWS V13.01,2013-06-19 05:20:00,
2013-06-19 01:25:00,64.9,51.6,29.21,SE,143,0.0,27.1,62,3.23,,,0.12,VWS V13.01,2013-06-19 05:25:00,
2013-06-19 01:30:00,64.8,51.5,29.23,ESE,108,0.0,27.1,62,3.23,,,0.12,VWS V13.01,2013-06-19 05:30:00,
2013-06-19 01:35:00,64.8,51.5,29.23,SE,136,0.0,27.1,62,3.23,,,0.12,VWS V13.01,2013-06-19 05:35:00,
2013-06-19 01:40:00,64.8,51.9,29.23,ESE,114,2.7,27.1,63,3.23,,,0.12,VWS V13.01,2013-06-19 05:40:00,
2013-06-19 01:45:00,64.8,51.9,29.23,SE,132,0.0,27.1,63,3.23,,,0.12,VWS V13.01,2013-06-19 05:45:00,
2013-06-19 01:50:00,64.8,51.9,29.23,SE,132,0.0,27.1,63,3.23,,,0.12,VWS V13.01,2013-06-19 05:50:00,
2013-06-19 01:55:00,64.8,51.9,29.23,SE,132,0.0,27.1,63,3.23,,,0.12,VWS V13.01,2013-06-19 05:55:00,
2013-06-19 02:00:00,64.8,51.9,29.23,SE,132,0.0,27.1,63,3.23,,,0.12,VWS V13.01,2013-06-19 06:00:00,
2013-06-19 02:05:00,64.8,51.9,29.23,SE,132,0.0,27.1,63,3.23,,,0.12,VWS V13.01,2013-06-19 06:05:00,
2013-06-19 02:10:00,64.8,51.9,29.23,SE,132,0.0,27.1,63,3.23,,,0.12,VWS V13.01,2013-06-19 06:10:00,
2013-06-19 02:15:00,64.6,51.7,29.23,SE,132,0.0,27.1,63,3.23,,,0.12,VWS V13.01,2013-06-19 06:15:00,
2013-06-19 02:20:00,64.6,51.7,29.23,SSE,156,2.7,27.1,63,3.23,,,0.12,VWS V13.01,2013-06-19 06:20:00,
2013-06-19 02:25:00,64.4,51.5,29.23,SSE,151,0.0,27.1,63,3.23,,,0.12,VWS V13.01,2013-06-19 06:25:00,
2013-06-19 02:30:00,64.4,51.5,29.21,SSE,151,0.0,27.1,63,3.23,,,0.12,VWS V13.01,2013-06-19 06:30:00,
2013-06-19 02:35:00,64.2,51.4,29.21,SSE,151,0.0,27.1,63,3.23,,,0.12,VWS V13.01,2013-06-19 06:35:00,
2013-06-19 02:40:00,64.2,51.4,29.21,SSE,151,0.0,27.1,63,3.23,,,0.12,VWS V13.01,2013-06-19 06:40:00,
2013-06-19 02:46:00,64.4,51.5,29.23,SSE,151,0.0,27.1,63,3.23,,,0.12,VWS V13.01,2013-06-19 06:46:00,
2013-06-19 02:51:00,64.4,51.5,29.23,SSE,151,0.0,27.1,63,3.23,,,0.12,VWS V13.01,2013-06-19 06:51:00,
2013-06-19 02:56:00,64.2,51.8,29.23,NW,308,0.0,27.1,64,3.23,,,0.12,VWS V13.01,2013-06-19 06:56:00,
2013-06-19 03:01:00,64.2,51.8,29.23,NNW,346,0.0,27.1,64,3.23,,,0.12,VWS V13.01,2013-06-19 07:01:00,
2013-06-19 03:06:00,64.2,51.8,29.23,North,0,0.0,27.1,64,3.23,,,0.12,VWS V13.01,2013-06-19 07:06:00,
2013-06-19 03:11:00,64.4,52.0,29.23,North,0,0.0,27.1,64,3.23,,,0.12,VWS V13.01,2013-06-19 07:11:00,
2013-06-19 03:16:00,64.4,52.0,29.23,North,0,0.0,27.1,64,3.23,,,0.12,VWS V13.01,2013-06-19 07:16:00,
2013-06-19 03:21:00,64.4,52.0,29.23,North,0,0.0,27.1,64,3.23,,,0.12,VWS V13.01,2013-06-19 07:21:00,
2013-06-19 03:26:00,64.4,52.0,29.23,North,0,0.0,27.1,64,3.23,,,0.12,VWS V13.01,2013-06-19 07:26:00,
2013-06-19 03:31:00,64.4,52.0,29.23,North,357,0.0,27.1,64,3.23,,,0.12,VWS V13.01,2013-06-19 07:31:00,
2013-06-19 03:36:00,64.4,52.0,29.23,North,0,0.0,27.1,64,3.23,,,0.12,VWS V13.01,2013-06-19 07:36:00,
2013-06-19 03:41:00,64.2,51.8,29.23,North,0,0.0,27.1,64,3.23,,,0.12,VWS V13.01,2013-06-19 07:41:00,
2013-06-19 03:46:00,64.2,51.8,29.23,North,0,0.0,27.1,64,3.23,,,0.12,VWS V13.01,2013-06-19 07:46:00,
2013-06-19 03:51:00,64.2,51.8,29.23,North,0,0.0,27.1,64,3.23,,,0.12,VWS V13.01,2013-06-19 07:51:00,
2013-06-19 03:56:00,64.2,51.8,29.23,NNW,338,0.0,27.1,64,3.23,,,0.12,VWS V13.01,2013-06-19 07:56:00,
2013-06-19 04:01:00,64.2,51.8,29.23,NNW,338,0.0,27.1,64,3.23,,,0.12,VWS V13.01,2013-06-19 08:01:00,
2013-06-19 04:06:00,64.2,51.8,29.23,NNW,338,0.0,27.1,64,3.23,,,0.12,VWS V13.01,2013-06-19 08:06:00,
2013-06-19 04:11:00,64.0,51.6,29.23,NNW,334,0.0,27.1,64,3.23,,,0.12,VWS V13.01,2013-06-19 08:11:00,
2013-06-19 04:16:00,64.0,51.6,29.23,WNW,300,0.0,27.1,64,3.23,,,0.12,VWS V13.01,2013-06-19 08:16:00,
2013-06-19 04:21:00,63.9,51.5,29.23,NW,310,0.0,27.1,64,3.23,,,0.12,VWS V13.01,2013-06-19 08:21:00,
2013-06-19 04:26:00,63.9,51.5,29.23,NW,310,0.0,27.1,64,3.23,,,0.12,VWS V13.01,2013-06-19 08:26:00,
2013-06-19 04:31:00,63.9,51.5,29.23,NW,310,0.0,27.1,64,3.23,,,0.12,VWS V13.01,2013-06-19 08:31:00,
2013-06-19 04:36:00,63.9,51.5,29.23,NW,310,0.0,27.1,64,3.23,,,0.12,VWS V13.01,2013-06-19 08:36:00,
2013-06-19 04:41:00,63.9,51.5,29.23,NW,310,0.0,27.1,64,3.23,,,0.12,VWS V13.01,2013-06-19 08:41:00,
2013-06-19 04:46:00,63.7,51.3,29.23,NW,310,0.0,27.1,64,3.23,,,0.12,VWS V13.01,2013-06-19 08:46:00,
2013-06-19 04:51:00,63.7,51.3,29.23,NW,310,0.0,27.1,64,3.23,,,0.12,VWS V13.01,2013-06-19 08:51:00,
2013-06-19 04:56:00,63.5,51.1,29.23,NW,310,0.0,27.1,64,3.23,,,0.12,VWS V13.01,2013-06-19 08:56:00,
2013-06-19 05:01:00,63.3,51.0,29.23,NW,310,0.0,27.1,64,3.23,,,0.12,VWS V13.01,2013-06-19 09:01:00,
2013-06-19 05:11:00,63.0,50.6,29.23,NW,310,0.0,27.1,64,3.23,,,0.12,VWS V13.01,2013-06-19 09:11:00,
2013-06-19 05:16:00,63.0,50.6,29.26,NW,310,0.0,27.1,64,3.23,,,0.12,VWS V13.01,2013-06-19 09:16:00,
2013-06-19 05:21:00,62.8,50.4,29.26,NW,310,0.0,27.1,64,3.23,,,0.12,VWS V13.01,2013-06-19 09:21:00,
2013-06-19 05:26:00,62.6,50.7,29.26,NW,310,0.0,27.1,65,3.23,,,0.12,VWS V13.01,2013-06-19 09:26:00,
2013-06-19 05:31:00,62.6,50.7,29.26,NW,310,0.0,27.1,65,3.23,,,0.12,VWS V13.01,2013-06-19 09:31:00,
2013-06-19 05:36:00,62.6,50.7,29.26,NW,310,0.0,27.1,65,3.23,,,0.12,VWS V13.01,2013-06-19 09:36:00,
2013-06-19 05:41:00,62.4,50.5,29.26,NW,310,0.0,27.1,65,3.23,,,0.12,VWS V13.01,2013-06-19 09:41:00,
2013-06-19 05:46:00,62.4,50.5,29.26,NW,310,0.0,27.1,65,3.23,,,0.12,VWS V13.01,2013-06-19 09:46:00,
2013-06-19 05:51:00,62.6,50.7,29.26,NW,310,0.0,27.1,65,3.23,,,0.12,VWS V13.01,2013-06-19 09:51:00,
2013-06-19 05:56:00,62.6,50.7,29.26,NW,310,0.0,27.1,65,3.23,,,0.12,VWS V13.01,2013-06-19 09:56:00,
2013-06-19 06:01:00,62.6,50.7,29.26,NW,310,0.0,27.1,65,3.23,,,0.12,VWS V13.01,2013-06-19 10:01:00,
2013-06-19 06:06:00,62.8,50.8,29.26,NW,310,0.0,27.1,65,3.23,,,0.12,VWS V13.01,2013-06-19 10:06:00,
2013-06-19 06:11:00,63.0,51.0,29.26,NW,310,0.0,27.1,65,3.23,,,0.12,VWS V13.01,2013-06-19 10:11:00,
2013-06-19 06:16:00,63.0,51.0,29.26,NW,310,0.0,27.1,65,3.23,,,0.12,VWS V13.01,2013-06-19 10:16:00,
2013-06-19 06:21:00,63.0,51.0,29.26,NW,310,0.0,27.1,65,3.23,,,0.12,VWS V13.01,2013-06-19 10:21:00,
2013-06-19 06:26:00,63.0,51.0,29.26,NW,310,0.0,27.1,65,3.23,,,0.12,VWS V13.01,2013-06-19 10:26:00,
2013-06-19 06:31:00,63.1,51.2,29.26,NW,310,0.0,27.1,65,3.23,,,0.12,VWS V13.01,2013-06-19 10:31:00,
2013-06-19 06:36:00,63.1,51.2,29.26,NW,310,0.0,27.1,65,3.23,,,0.12,VWS V13.01,2013-06-19 10:36:00,
2013-06-19 06:41:00,63.1,51.2,29.26,NW,310,0.0,27.1,65,3.23,,,0.12,VWS V13.01,2013-06-19 10:41:00,
2013-06-19 06:46:00,63.1,51.2,29.26,NW,310,0.0,27.1,65,3.23,,,0.12,VWS V13.01,2013-06-19 10:46:00,
2013-06-19 06:51:00,63.1,51.2,29.26,NW,310,0.0,27.1,65,3.23,,,0.12,VWS V13.01,2013-06-19 10:51:00,
2013-06-19 06:56:00,63.1,51.2,29.26,NW,310,0.0,27.1,65,3.23,,,0.12,VWS V13.01,2013-06-19 10:56:00,
2013-06-19 07:01:00,63.1,51.2,29.29,NW,310,0.0,27.1,65,3.23,,,0.12,VWS V13.01,2013-06-19 11:01:00,
2013-06-19 07:06:00,63.1,51.2,29.29,NW,310,0.0,27.1,65,3.23,,,0.12,VWS V13.01,2013-06-19 11:06:00,
2013-06-19 07:11:00,63.1,51.2,29.29,NW,310,0.0,27.1,65,3.23,,,0.12,VWS V13.01,2013-06-19 11:11:00,
2013-06-19 07:16:00,63.1,51.2,29.29,NW,310,0.0,27.1,65,3.23,,,0.12,VWS V13.01,2013-06-19 11:16:00,
2013-06-19 07:21:00,63.3,51.4,29.29,NW,310,0.0,27.1,65,3.23,,,0.12,VWS V13.01,2013-06-19 11:21:00,
2013-06-19 07:26:00,63.3,51.4,29.29,NW,310,0.0,27.1,65,3.23,,,0.12,VWS V13.01,2013-06-19 11:26:00,
2013-06-19 07:31:00,63.3,51.4,29.29,North,353,0.0,27.1,65,3.23,,,0.12,VWS V13.01,2013-06-19 11:31:00,
2013-06-19 07:36:00,63.3,51.4,29.29,North,353,0.0,27.1,65,3.23,,,0.12,VWS V13.01,2013-06-19 11:36:00,
2013-06-19 07:41:00,63.1,51.2,29.29,North,353,0.0,27.1,65,3.23,,,0.12,VWS V13.01,2013-06-19 11:41:00,
2013-06-19 07:46:00,63.1,51.2,29.29,North,353,0.0,27.1,65,3.23,,,0.12,VWS V13.01,2013-06-19 11:46:00,
2013-06-19 07:51:00,63.3,51.8,29.29,North,353,0.0,27.1,66,3.23,,,0.12,VWS V13.01,2013-06-19 11:51:00,
2013-06-19 07:56:00,63.5,52.0,29.29,North,353,0.0,27.1,66,3.23,,,0.12,VWS V13.01,2013-06-19 11:56:00,
2013-06-19 08:01:00,63.5,52.0,29.29,North,353,0.0,27.1,66,3.23,,,0.12,VWS V13.01,2013-06-19 12:01:00,
2013-06-19 08:06:00,63.5,52.0,29.29,North,353,0.0,27.1,66,3.23,,,0.12,VWS V13.01,2013-06-19 12:06:00,
2013-06-19 08:11:00,63.7,52.1,29.29,North,353,0.0,27.1,66,3.23,,,0.12,VWS V13.01,2013-06-19 12:11:00,
2013-06-19 08:16:00,63.7,52.1,29.32,North,353,0.0,27.1,66,3.23,,,0.12,VWS V13.01,2013-06-19 12:16:00,
2013-06-19 08:21:00,63.9,52.3,29.32,North,353,0.0,27.1,66,3.23,,,0.12,VWS V13.01,2013-06-19 12:21:00,
2013-06-19 08:26:00,64.0,52.5,29.32,South,184,0.0,27.1,66,3.23,,,0.12,VWS V13.01,2013-06-19 12:26:00,
2013-06-19 08:31:00,64.2,52.6,29.32,SE,130,0.0,27.1,66,3.23,,,0.12,VWS V13.01,2013-06-19 12:31:00,
2013-06-19 08:36:00,64.2,52.6,29.32,SSE,164,2.2,27.1,66,3.23,,,0.12,VWS V13.01,2013-06-19 12:36:00,
2013-06-19 08:41:00,64.4,52.8,29.32,SSE,161,3.1,27.1,66,3.23,,,0.12,VWS V13.01,2013-06-19 12:41:00,
2013-06-19 08:46:00,64.6,53.0,29.32,SE,125,0.0,27.1,66,3.23,,,0.12,VWS V13.01,2013-06-19 12:46:00,
2013-06-19 08:51:00,64.6,53.0,29.32,SE,125,0.0,27.1,66,3.23,,,0.12,VWS V13.01,2013-06-19 12:51:00,
2013-06-19 08:56:00,64.9,53.3,29.32,SSE,147,0.0,27.1,66,3.23,,,0.12,VWS V13.01,2013-06-19 12:56:00,
2013-06-19 09:01:00,65.1,53.5,29.32,SE,126,0.0,27.1,66,3.23,,,0.12,VWS V13.01,2013-06-19 13:01:00,
2013-06-19 09:06:00,65.3,53.7,29.32,ESE,123,0.0,27.1,66,3.23,,,0.12,VWS V13.01,2013-06-19 13:06:00,
2013-06-19 09:11:00,65.7,54.0,29.32,ESE,123,0.0,27.1,66,3.23,,,0.12,VWS V13.01,2013-06-19 13:11:00,
2013-06-19 09:16:00,65.8,54.2,29.32,SSE,168,0.0,27.1,66,3.23,,,0.12,VWS V13.01,2013-06-19 13:16:00,
2013-06-19 09:21:00,66.0,54.3,29.32,SSE,162,3.1,27.1,66,3.23,,,0.12,VWS V13.01,2013-06-19 13:21:00,
2013-06-19 09:26:00,66.0,54.3,29.32,SE,127,0.0,27.1,66,3.23,,,0.12,VWS V13.01,2013-06-19 13:26:00,
2013-06-19 09:31:00,66.2,54.5,29.32,SE,127,0.0,27.1,66,3.23,,,0.12,VWS V13.01,2013-06-19 13:31:00,
2013-06-19 09:37:00,66.4,54.3,29.32,SE,127,0.0,27.1,65,3.23,,,0.12,VWS V13.01,2013-06-19 13:37:00,
2013-06-19 09:42:00,66.7,54.6,29.32,SE,127,0.0,27.1,65,3.23,,,0.12,VWS V13.01,2013-06-19 13:42:00,
2013-06-19 09:47:00,66.7,54.6,29.32,SE,127,0.0,27.1,65,3.23,,,0.12,VWS V13.01,2013-06-19 13:47:00,
2013-06-19 09:52:00,66.7,54.6,29.32,East,99,0.0,27.1,65,3.23,,,0.12,VWS V13.01,2013-06-19 13:52:00,
2013-06-19 09:57:00,66.7,54.6,29.32,SSE,156,0.0,27.1,65,3.23,,,0.12,VWS V13.01,2013-06-19 13:57:00,
2013-06-19 10:02:00,67.1,55.0,29.32,SSE,155,0.0,27.1,65,3.23,,,0.12,VWS V13.01,2013-06-19 14:02:00,
2013-06-19 10:07:00,67.1,54.5,29.32,SSE,148,2.7,27.1,64,3.23,,,0.12,VWS V13.01,2013-06-19 14:07:00,
2013-06-19 10:12:00,67.3,54.3,29.32,SSE,154,3.1,27.1,63,3.23,,,0.12,VWS V13.01,2013-06-19 14:12:00,
2013-06-19 10:17:00,67.3,53.8,29.32,SSE,148,3.1,27.1,62,3.23,,,0.12,VWS V13.01,2013-06-19 14:17:00,
2013-06-19 10:22:00,67.1,53.2,29.32,SSW,208,0.0,27.1,61,3.23,,,0.12,VWS V13.01,2013-06-19 14:22:00,
2013-06-19 10:27:00,67.3,52.5,29.32,SE,146,0.0,27.1,59,3.23,,,0.12,VWS V13.01,2013-06-19 14:27:00,
2013-06-19 10:32:00,67.6,52.3,29.32,SE,131,0.0,27.1,58,3.23,,,0.12,VWS V13.01,2013-06-19 14:32:00,
2013-06-19 10:37:00,67.8,52.0,29.32,SE,131,0.0,27.1,57,3.23,,,0.12,VWS V13.01,2013-06-19 14:37:00,
2013-06-19 10:42:00,68.2,51.4,29.32,ESE,120,0.0,27.1,55,3.23,,,0.12,VWS V13.01,2013-06-19 14:42:00,
2013-06-19 10:47:00,68.4,50.6,29.32,NW,326,0.0,27.1,53,3.23,,,0.12,VWS V13.01,2013-06-19 14:47:00,
2013-06-19 10:52:00,68.4,50.6,29.32,SW,228,3.1,27.1,53,3.23,,,0.12,VWS V13.01,2013-06-19 14:52:00,
2013-06-19 10:57:00,68.4,49.0,29.35,WSW,240,0.0,27.1,50,3.23,,,0.12,VWS V13.01,2013-06-19 14:57:00,
2013-06-19 11:02:00,68.5,48.6,29.35,SW,220,0.0,27.1,49,3.23,,,0.12,VWS V13.01,2013-06-19 15:02:00,
2013-06-19 11:07:00,68.5,47.5,29.35,SW,225,0.0,27.1,47,3.23,,,0.12,VWS V13.01,2013-06-19 15:07:00,
2013-06-19 11:12:00,68.7,47.1,29.35,West,259,0.0,27.1,46,3.23,,,0.12,VWS V13.01,2013-06-19 15:12:00,
2013-06-19 11:17:00,69.1,47.5,29.35,SW,214,0.0,27.1,46,3.23,,,0.12,VWS V13.01,2013-06-19 15:17:00,
2013-06-19 11:22:00,69.4,46.6,29.35,WSW,242,0.0,27.1,44,3.23,,,0.12,VWS V13.01,2013-06-19 15:22:00,
2013-06-19 11:27:00,69.6,46.2,29.35,South,181,3.1,27.1,43,3.23,,,0.12,VWS V13.01,2013-06-19 15:27:00,
2013-06-19 11:32:00,69.8,46.3,29.35,South,185,2.7,27.1,43,3.23,,,0.12,VWS V13.01,2013-06-19 15:32:00,
2013-06-19 11:37:00,70.0,45.9,29.35,SSW,193,3.6,27.1,42,3.23,,,0.00,VWS V13.01,2013-06-19 15:37:00,
2013-06-19 11:42:00,70.0,45.2,29.35,West,260,3.6,27.1,41,3.23,,,0.00,VWS V13.01,2013-06-19 15:42:00,
2013-06-19 11:47:00,70.3,45.5,29.35,WSW,246,0.0,27.1,41,3.23,,,0.00,VWS V13.01,2013-06-19 15:47:00,
2013-06-19 11:52:00,70.7,45.9,29.35,WNW,294,0.0,27.1,41,3.23,,,0.00,VWS V13.01,2013-06-19 15:52:00,
2013-06-19 11:57:00,71.1,46.2,29.35,WNW,303,0.0,27.1,41,3.23,,,0.00,VWS V13.01,2013-06-19 15:57:00,
2013-06-19 12:02:00,71.4,45.2,29.35,SW,219,2.2,27.1,39,3.23,,,0.00,VWS V13.01,2013-06-19 16:02:00,
2013-06-19 12:07:00,71.6,44.0,29.35,WSW,258,0.0,27.1,37,3.23,,,0.00,VWS V13.01,2013-06-19 16:07:00,
2013-06-19 12:12:00,72.0,44.3,29.35,WNW,283,2.2,27.1,37,3.23,,,0.00,VWS V13.01,2013-06-19 16:12:00,
2013-06-19 12:17:00,72.3,43.9,29.35,NNW,328,3.1,27.1,36,3.23,,,0.00,VWS V13.01,2013-06-19 16:17:00,
2013-06-19 12:22:00,72.5,44.1,29.35,North,353,0.0,27.1,36,3.23,,,0.00,VWS V13.01,2013-06-19 16:22:00,
2013-06-19 12:27:00,73.2,44.0,29.35,NNW,341,2.7,27.1,35,3.23,,,0.00,VWS V13.01,2013-06-19 16:27:00,
2013-06-19 12:32:00,73.4,43.3,29.35,West,276,2.2,27.1,34,3.23,,,0.00,VWS V13.01,2013-06-19 16:32:00,
2013-06-19 12:37:00,73.2,42.4,29.35,SSW,208,0.0,27.1,33,3.23,,,0.00,VWS V13.01,2013-06-19 16:37:00,
2013-06-19 12:42:00,73.6,41.9,29.35,West,266,0.0,27.1,32,3.23,,,0.00,VWS V13.01,2013-06-19 16:42:00,
2013-06-19 12:47:00,74.3,43.4,29.35,SW,218,4.0,27.1,33,3.23,,,0.00,VWS V13.01,2013-06-19 16:47:00,
2013-06-19 12:52:00,74.8,42.2,29.35,WSW,239,6.3,27.1,31,3.23,,,0.00,VWS V13.01,2013-06-19 16:52:00,
2013-06-19 12:57:00,74.5,41.9,29.35,SSW,212,5.8,27.1,31,3.23,,,0.00,VWS V13.01,2013-06-19 16:57:00,
2013-06-19 13:02:00,74.3,42.6,29.35,WNW,291,3.6,27.1,32,3.23,,,0.00,VWS V13.01,2013-06-19 17:02:00,
2013-06-19 13:07:00,74.5,42.7,29.35,WSW,254,0.0,27.1,32,3.23,,,0.00,VWS V13.01,2013-06-19 17:07:00,
2013-06-19 13:12:00,75.2,42.5,29.35,SW,228,3.6,27.1,31,3.23,,,0.00,VWS V13.01,2013-06-19 17:12:00,
2013-06-19 13:17:00,75.6,39.3,29.35,SSW,203,6.3,27.1,27,3.23,,,0.00,VWS V13.01,2013-06-19 17:17:00,
2013-06-19 13:22:00,75.9,41.4,29.35,WNW,288,5.4,27.1,29,3.23,,,0.00,VWS V13.01,2013-06-19 17:22:00,
2013-06-19 13:27:00,76.6,40.2,29.32,West,259,3.6,27.1,27,3.23,,,0.00,VWS V13.01,2013-06-19 17:27:00,
2013-06-19 13:32:00,76.8,36.2,29.32,SSW,213,4.9,27.1,23,3.23,,,0.00,VWS V13.01,2013-06-19 17:32:00,
2013-06-19 13:37:00,76.6,36.1,29.32,SSW,195,0.0,27.1,23,3.23,,,0.00,VWS V13.01,2013-06-19 17:37:00,
2013-06-19 13:42:00,76.8,36.2,29.35,WSW,240,2.7,27.1,23,3.23,,,0.00,VWS V13.01,2013-06-19 17:42:00,
2013-06-19 13:47:00,77.0,35.3,29.35,SSW,193,4.0,27.1,22,3.23,,,0.00,VWS V13.01,2013-06-19 17:47:00,
2013-06-19 13:52:00,77.0,35.3,29.35,South,187,4.0,27.1,22,3.23,,,0.00,VWS V13.01,2013-06-19 17:52:00,
2013-06-19 13:57:00,77.4,35.6,29.32,SSW,204,0.0,27.1,22,3.23,,,0.00,VWS V13.01,2013-06-19 17:57:00,
2013-06-19 14:02:00,77.5,33.3,29.32,South,171,5.4,27.1,20,3.23,,,0.00,VWS V13.01,2013-06-19 18:02:00,
2013-06-19 14:07:00,77.5,34.6,29.32,South,191,5.8,27.1,21,3.23,,,0.00,VWS V13.01,2013-06-19 18:07:00,
2013-06-19 14:12:00,77.9,33.6,29.32,SW,232,3.1,27.1,20,3.23,,,0.00,VWS V13.01,2013-06-19 18:12:00,
2013-06-19 14:17:00,77.9,33.6,29.32,WSW,255,2.7,27.1,20,3.23,,,0.00,VWS V13.01,2013-06-19 18:17:00,
2013-06-19 14:22:00,78.6,34.2,29.32,ESE,122,3.1,27.1,20,3.23,,,0.00,VWS V13.01,2013-06-19 18:22:00,
2013-06-19 14:27:00,79.5,30.9,29.32,ESE,116,0.0,27.1,17,3.23,,,0.00,VWS V13.01,2013-06-19 18:27:00,
2013-06-19 14:32:00,80.2,28.4,29.32,NNW,348,4.0,27.1,15,3.23,,,0.00,VWS V13.01,2013-06-19 18:32:00,
2013-06-19 14:37:00,80.2,23.1,29.32,NNW,345,4.0,27.1,12,3.23,,,0.00,VWS V13.01,2013-06-19 18:37:00,
2013-06-19 14:42:00,80.2,23.1,29.32,NNW,331,5.4,27.1,12,3.23,,,0.00,VWS V13.01,2013-06-19 18:42:00,
2013-06-19 14:47:00,80.4,23.2,29.32,ENE,68,0.0,27.1,12,3.23,,,0.00,VWS V13.01,2013-06-19 18:47:00,
2013-06-19 14:52:00,80.4,23.2,29.32,SE,138,2.7,27.1,12,3.23,,,0.00,VWS V13.01,2013-06-19 18:52:00,
2013-06-19 14:57:00,80.2,23.1,29.32,NW,321,2.7,27.1,12,3.23,,,0.00,VWS V13.01,2013-06-19 18:57:00,
2013-06-19 15:02:00,80.4,23.2,29.32,NNE,12,4.0,27.1,12,3.23,,,0.00,VWS V13.01,2013-06-19 19:02:00,
2013-06-19 15:07:00,80.6,23.4,29.32,NW,315,5.8,27.1,12,3.23,,,0.00,VWS V13.01,2013-06-19 19:07:00,
2013-06-19 15:12:00,81.0,23.6,29.32,NW,321,4.0,27.1,12,3.23,,,0.00,VWS V13.01,2013-06-19 19:12:00,
2013-06-19 15:17:00,80.8,16.7,29.32,North,357,3.6,27.1,9,3.23,,,0.00,VWS V13.01,2013-06-19 19:17:00,
2013-06-19 15:22:00,80.8,16.7,29.32,North,9,2.7,27.1,9,3.23,,,0.00,VWS V13.01,2013-06-19 19:22:00,
2013-06-19 15:27:00,81.1,17.0,29.32,North,353,2.7,27.1,9,3.23,,,0.00,VWS V13.01,2013-06-19 19:27:00,
2013-06-19 15:32:00,81.1,17.0,29.32,NW,316,3.6,27.1,9,3.23,,,0.00,VWS V13.01,2013-06-19 19:32:00,
2013-06-19 15:37:00,81.1,17.0,29.32,NW,316,5.4,27.1,9,3.23,,,0.00,VWS V13.01,2013-06-19 19:37:00,
2013-06-19 15:42:00,80.2,18.8,29.32,North,3,2.7,27.1,10,3.23,,,0.00,VWS V13.01,2013-06-19 19:42:00,
2013-06-19 15:48:00,80.8,16.7,29.32,NW,315,5.8,27.1,9,3.23,,,0.00,VWS V13.01,2013-06-19 19:48:00,
2013-06-19 15:53:00,81.5,17.3,29.32,WNW,297,8.3,27.1,9,3.23,,,0.00,VWS V13.01,2013-06-19 19:53:00,
2013-06-19 15:58:00,81.5,17.3,29.32,North,0,5.4,27.1,9,3.23,,,0.00,VWS V13.01,2013-06-19 19:58:00,
2013-06-19 16:03:00,81.5,17.3,29.32,NNW,333,5.4,27.1,9,3.23,,,0.00,VWS V13.01,2013-06-19 20:03:00,
2013-06-19 16:11:00,81.7,17.4,29.32,NNW,337,2.7,27.1,9,3.23,,,0.00,VWS V13.01,2013-06-19 20:11:00,
2013-06-19 16:16:00,82.2,17.8,29.32,NNE,27,2.7,27.1,9,3.23,,,0.00,VWS V13.01,2013-06-19 20:16:00,
2013-06-19 16:21:00,82.0,17.7,29.32,NNW,343,3.6,27.1,9,3.23,,,0.00,VWS V13.01,2013-06-19 20:21:00,
2013-06-19 16:26:00,82.2,17.8,29.32,NE,35,3.6,27.1,9,3.23,,,0.00,VWS V13.01,2013-06-19 20:26:00,
2013-06-19 16:31:00,82.4,18.0,29.32,North,357,3.6,27.1,9,3.23,,,0.00,VWS V13.01,2013-06-19 20:31:00,
2013-06-19 16:36:00,82.4,18.0,29.32,North,353,4.9,27.1,9,3.23,,,0.00,VWS V13.01,2013-06-19 20:36:00,
2013-06-19 16:41:00,82.6,18.1,29.32,NNW,339,5.4,27.1,9,3.23,,,0.00,VWS V13.01,2013-06-19 20:41:00,
2013-06-19 16:46:00,82.4,18.0,29.32,NW,305,2.7,27.1,9,3.23,,,0.00,VWS V13.01,2013-06-19 20:46:00,
2013-06-19 16:51:00,82.6,18.1,29.32,WNW,287,4.0,27.1,9,3.23,,,0.00,VWS V13.01,2013-06-19 20:51:00,
2013-06-19 16:56:00,82.8,18.2,29.32,North,357,3.1,27.1,9,3.23,,,0.00,VWS V13.01,2013-06-19 20:56:00,
2013-06-19 17:01:00,82.9,18.4,29.32,NW,314,4.5,27.1,9,3.23,,,0.00,VWS V13.01,2013-06-19 21:01:00,
2013-06-19 17:06:00,82.8,18.2,29.32,South,177,2.7,27.1,9,3.23,,,0.00,VWS V13.01,2013-06-19 21:06:00,
2013-06-19 17:11:00,82.8,18.2,29.32,ENE,64,3.1,27.1,9,3.23,,,0.00,VWS V13.01,2013-06-19 21:11:00,
2013-06-19 17:16:00,82.8,18.2,29.32,East,84,4.9,27.1,9,3.23,,,0.00,VWS V13.01,2013-06-19 21:16:00,
2013-06-19 17:21:00,82.8,18.2,29.32,SE,131,2.2,27.1,9,3.23,,,0.00,VWS V13.01,2013-06-19 21:21:00,
2013-06-19 17:26:00,82.9,18.4,29.32,North,353,5.4,27.1,9,3.23,,,0.00,VWS V13.01,2013-06-19 21:26:00,
2013-06-19 17:31:00,82.4,18.0,29.32,WSW,242,0.0,27.1,9,3.23,,,0.00,VWS V13.01,2013-06-19 21:31:00,
2013-06-19 17:36:00,83.5,18.8,29.32,North,3,3.6,27.1,9,3.23,,,0.00,VWS V13.01,2013-06-19 21:36:00,
2013-06-19 17:41:00,83.5,18.8,29.32,NNE,26,3.6,27.1,9,3.23,,,0.00,VWS V13.01,2013-06-19 21:41:00,
2013-06-19 17:46:00,83.5,18.8,29.32,NNW,346,0.0,27.1,9,3.23,,,0.00,VWS V13.01,2013-06-19 21:46:00,
2013-06-19 17:51:00,84.0,19.2,29.32,NNW,338,2.7,27.1,9,3.23,,,0.00,VWS V13.01,2013-06-19 21:51:00,
2013-06-19 17:56:00,84.0,19.2,29.32,NE,48,2.7,27.1,9,3.23,,,0.00,VWS V13.01,2013-06-19 21:56:00,
2013-06-19 18:01:00,83.5,18.8,29.32,NW,317,2.2,27.1,9,3.23,,,0.00,VWS V13.01,2013-06-19 22:01:00,
2013-06-19 18:06:00,83.1,18.5,29.32,NNW,329,2.7,27.1,9,3.23,,,0.00,VWS V13.01,2013-06-19 22:06:00,
2013-06-19 18:11:00,82.9,18.4,29.32,North,353,3.1,27.1,9,3.23,,,0.00,VWS V13.01,2013-06-19 22:11:00,
2013-06-19 18:16:00,82.6,18.1,29.32,NNW,337,2.7,27.1,9,3.23,,,0.00,VWS V13.01,2013-06-19 22:16:00,
2013-06-19 18:21:00,82.2,17.8,29.32,NNW,333,2.7,27.1,9,3.23,,,0.00,VWS V13.01,2013-06-19 22:21:00,
2013-06-19 18:26:00,82.2,17.8,29.32,NE,54,0.0,27.1,9,3.23,,,0.00,VWS V13.01,2013-06-19 22:26:00,
2013-06-19 18:31:00,82.6,18.1,29.29,NNE,33,4.0,27.1,9,3.23,,,0.00,VWS V13.01,2013-06-19 22:31:00,
2013-06-19 18:36:00,82.2,17.8,29.29,SE,126,2.7,27.1,9,3.23,,,0.00,VWS V13.01,2013-06-19 22:36:00,
2013-06-19 18:41:00,82.6,18.1,29.29,North,357,3.1,27.1,9,3.23,,,0.00,VWS V13.01,2013-06-19 22:41:00,
2013-06-19 18:46:00,82.8,18.2,29.29,NNW,340,0.0,27.1,9,3.23,,,0.00,VWS V13.01,2013-06-19 22:46:00,
2013-06-19 18:51:00,82.6,18.1,29.29,NE,44,0.0,27.1,9,3.23,,,0.00,VWS V13.01,2013-06-19 22:51:00,
2013-06-19 18:56:00,82.4,18.0,29.29,NNW,339,3.6,27.1,9,3.23,,,0.00,VWS V13.01,2013-06-19 22:56:00,
2013-06-19 19:01:00,82.0,17.7,29.32,NNE,30,2.7,27.1,9,3.23,,,0.00,VWS V13.01,2013-06-19 23:01:00,
2013-06-19 19:06:00,82.0,17.7,29.32,NNE,29,0.0,27.1,9,3.23,,,0.00,VWS V13.01,2013-06-19 23:06:00,
2013-06-19 19:11:00,82.6,18.1,29.32,NNW,332,2.7,27.1,9,3.23,,,0.00,VWS V13.01,2013-06-19 23:11:00,
2013-06-19 19:16:00,82.0,17.7,29.32,NNW,340,3.1,27.1,9,3.23,,,0.00,VWS V13.01,2013-06-19 23:16:00,
2013-06-19 19:21:00,81.9,17.6,29.32,NNW,341,2.7,27.1,9,3.23,,,0.00,VWS V13.01,2013-06-19 23:21:00,
2013-06-19 19:26:00,81.9,17.6,29.32,North,353,3.1,27.1,9,3.23,,,0.00,VWS V13.01,2013-06-19 23:26:00,
2013-06-19 19:31:00,81.3,17.1,29.32,NNW,328,2.2,27.1,9,3.23,,,0.00,VWS V13.01,2013-06-19 23:31:00,
2013-06-19 19:36:00,81.0,16.9,29.32,NNW,346,0.0,27.1,9,3.23,,,0.00,VWS V13.01,2013-06-19 23:36:00,
2013-06-19 19:41:00,81.0,16.9,29.32,NNW,339,2.7,27.1,9,3.23,,,0.00,VWS V13.01,2013-06-19 23:41:00,
2013-06-19 19:46:00,80.8,16.7,29.32,North,350,0.0,27.1,9,3.23,,,0.00,VWS V13.01,2013-06-19 23:46:00,
2013-06-19 19:51:00,80.6,16.6,29.32,North,0,0.0,27.1,9,3.23,,,0.00,VWS V13.01,2013-06-19 23:51:00,
2013-06-19 19:56:00,80.1,18.6,29.32,North,353,2.2,27.1,10,3.23,,,0.00,VWS V13.01,2013-06-19 23:56:00,
2013-06-19 20:02:00,79.9,22.8,29.32,North,353,0.0,27.1,12,3.23,,,0.00,VWS V13.01,2013-06-20 00:02:00,
2013-06-19 20:07:00,79.9,22.8,29.32,North,353,0.0,27.1,12,3.23,,,0.00,VWS V13.01,2013-06-20 00:07:00,
2013-06-19 20:12:00,79.7,22.6,29.32,North,353,0.0,27.1,12,3.23,,,0.00,VWS V13.01,2013-06-20 00:12:00,
2013-06-19 20:17:00,79.7,22.6,29.32,North,353,0.0,27.1,12,3.23,,,0.00,VWS V13.01,2013-06-20 00:17:00,
2013-06-19 20:22:00,79.2,22.2,29.32,North,353,0.0,27.1,12,3.23,,,0.00,VWS V13.01,2013-06-20 00:22:00,
2013-06-19 20:27:00,78.8,22.0,29.32,North,353,0.0,27.1,12,3.23,,,0.00,VWS V13.01,2013-06-20 00:27:00,
2013-06-19 20:32:00,78.1,23.3,29.32,North,353,0.0,27.1,13,3.23,,,0.00,VWS V13.01,2013-06-20 00:32:00,
2013-06-19 20:37:00,77.4,22.7,29.32,North,353,0.0,27.1,13,3.23,,,0.00,VWS V13.01,2013-06-20 00:37:00,
2013-06-19 20:42:00,76.5,25.4,29.32,North,353,0.0,27.1,15,3.23,,,0.00,VWS V13.01,2013-06-20 00:42:00,
2013-06-19 20:47:00,75.9,25.0,29.32,North,353,0.0,27.1,15,3.23,,,0.00,VWS V13.01,2013-06-20 00:47:00,
2013-06-19 20:52:00,75.4,29.0,29.32,North,353,0.0,27.1,18,3.23,,,0.00,VWS V13.01,2013-06-20 00:52:00,
2013-06-19 20:57:00,74.7,32.2,29.32,North,353,0.0,27.1,21,3.23,,,0.00,VWS V13.01,2013-06-20 00:57:00,
2013-06-19 21:02:00,73.8,32.6,29.32,North,353,0.0,27.1,22,3.23,,,0.00,VWS V13.01,2013-06-20 01:02:00,
2013-06-19 21:07:00,73.0,34.1,29.32,North,353,0.0,27.1,24,3.23,,,0.00,VWS V13.01,2013-06-20 01:07:00,
2013-06-19 21:12:00,72.5,33.7,29.32,North,353,0.0,27.1,24,3.23,,,0.00,VWS V13.01,2013-06-20 01:12:00,
2013-06-19 21:17:00,71.8,34.1,29.32,North,353,0.0,27.1,25,3.23,,,0.00,VWS V13.01,2013-06-20 01:17:00,
2013-06-19 21:22:00,71.2,34.6,29.32,North,353,0.0,27.1,26,3.23,,,0.00,VWS V13.01,2013-06-20 01:22:00,
2013-06-19 21:27:00,71.1,34.5,29.32,North,353,0.0,27.1,26,3.23,,,0.00,VWS V13.01,2013-06-20 01:27:00,
2013-06-19 21:32:00,70.7,35.1,29.32,North,353,0.0,27.1,27,3.23,,,0.00,VWS V13.01,2013-06-20 01:32:00,
2013-06-19 21:37:00,70.3,35.7,29.32,North,353,0.0,27.1,28,3.23,,,0.00,VWS V13.01,2013-06-20 01:37:00,
2013-06-19 21:43:00,70.0,37.2,29.35,North,353,0.0,27.1,30,3.23,,,0.00,VWS V13.01,2013-06-20 01:43:00,
2013-06-19 21:48:00,69.6,39.3,29.35,North,353,0.0,27.1,33,3.23,,,0.00,VWS V13.01,2013-06-20 01:48:00,
2013-06-19 21:53:00,69.6,40.0,29.35,North,353,0.0,27.1,34,3.23,,,0.00,VWS V13.01,2013-06-20 01:53:00,
2013-06-19 21:58:00,69.4,39.9,29.35,North,353,0.0,27.1,34,3.23,,,0.00,VWS V13.01,2013-06-20 01:58:00,
2013-06-19 22:03:00,69.1,39.6,29.35,North,353,0.0,27.1,34,3.23,,,0.00,VWS V13.01,2013-06-20 02:03:00,
2013-06-19 22:08:00,68.7,39.2,29.35,North,353,0.0,27.1,34,3.23,,,0.00,VWS V13.01,2013-06-20 02:08:00,
2013-06-19 22:13:00,68.7,40.7,29.35,North,353,0.0,27.1,36,3.23,,,0.00,VWS V13.01,2013-06-20 02:13:00,
2013-06-19 22:18:00,68.5,39.8,29.35,North,353,0.0,27.1,35,3.23,,,0.00,VWS V13.01,2013-06-20 02:18:00,
2013-06-19 22:23:00,68.2,40.9,29.35,North,353,0.0,27.1,37,3.23,,,0.00,VWS V13.01,2013-06-20 02:23:00,
2013-06-19 22:28:00,68.0,40.8,29.35,North,353,0.0,27.1,37,3.23,,,0.00,VWS V13.01,2013-06-20 02:28:00,
2013-06-19 22:33:00,67.8,41.3,29.35,North,353,0.0,27.1,38,3.23,,,0.00,VWS V13.01,2013-06-20 02:33:00,
2013-06-19 22:38:00,67.5,41.7,29.35,North,353,0.0,27.1,39,3.23,,,0.00,VWS V13.01,2013-06-20 02:38:00,
2013-06-19 22:43:00,67.3,43.4,29.35,North,353,0.0,27.1,42,3.23,,,0.00,VWS V13.01,2013-06-20 02:43:00,
2013-06-19 22:48:00,66.9,43.1,29.35,North,353,0.0,27.1,42,3.23,,,0.00,VWS V13.01,2013-06-20 02:48:00,
2013-06-19 22:53:00,66.7,42.9,29.35,North,353,0.0,27.1,42,3.23,,,0.00,VWS V13.01,2013-06-20 02:53:00,
2013-06-19 22:58:00,66.4,43.2,29.38,North,353,0.0,27.1,43,3.23,,,0.00,VWS V13.01,2013-06-20 02:58:00,
2013-06-19 23:03:00,66.2,43.1,29.38,North,353,0.0,27.1,43,3.23,,,0.00,VWS V13.01,2013-06-20 03:03:00,
2013-06-19 23:08:00,66.2,43.1,29.38,North,353,0.0,27.1,43,3.23,,,0.00,VWS V13.01,2013-06-20 03:08:00,
2013-06-19 23:13:00,66.2,43.7,29.38,North,353,0.0,27.1,44,3.23,,,0.00,VWS V13.01,2013-06-20 03:13:00,
2013-06-19 23:18:00,66.0,44.7,29.38,North,353,0.0,27.1,46,3.23,,,0.00,VWS V13.01,2013-06-20 03:18:00,
2013-06-19 23:23:00,66.0,44.7,29.38,North,353,0.0,27.1,46,3.23,,,0.00,VWS V13.01,2013-06-20 03:23:00,
2013-06-19 23:28:00,65.8,44.5,29.38,North,353,0.0,27.1,46,3.23,,,0.00,VWS V13.01,2013-06-20 03:28:00,
2013-06-19 23:33:00,65.8,44.5,29.38,North,353,0.0,27.1,46,3.23,,,0.00,VWS V13.01,2013-06-20 03:33:00,
2013-06-19 23:38:00,65.7,44.3,29.38,North,353,0.0,27.1,46,3.23,,,0.00,VWS V13.01,2013-06-20 03:38:00,
2013-06-19 23:43:00,65.5,44.2,29.38,North,353,0.0,27.1,46,3.23,,,0.00,VWS V13.01,2013-06-20 03:43:00,
2013-06-19 23:48:00,65.3,44.6,29.38,North,353,0.0,27.1,47,3.23,,,0.00,VWS V13.01,2013-06-20 03:48:00,
2013-06-19 23:53:00,65.1,44.4,29.38,North,353,0.0,27.1,47,3.23,,,0.00,VWS V13.01,2013-06-20 03:53:00,
2013-06-19 23:59:00,65.1,45.0,29.38,North,353,0.0,27.1,48,3.23,,,0.00,VWS V13.01,2013-06-20 03:59:00,